This demonstration page uses our WeatherBlox Daily Observations layout. Learn more.

Left ArrowRight Arrow

Hourly Observations for February 29, 2020

Temp ( °F °C ) Dew Point ( °F °C ) Humidity (%) Winds ( mph kmh ) Pressure ( in mb ) Visibility ( mi km ) Precip ( " mm )
12:56 am 00:56 Clear 33 0.6 23 -5 66 66 SW 7 11 30.17 1022 10 16 0.00 0.00
1:56 am 01:56 Clear 32 0 23 -5 69 69 SW 8 13 30.15 1021 10 16 0.00 0.00
2:56 am 02:56 Clear 31 -0.6 23 -5 72 72 SW 7 11 30.13 1020 10 16 0.00 0.00
3:56 am 03:56 Clear 31 -0.6 24 -4.4 76 76 SSW 9 15 30.10 1019 10 16 0.00 0.00
4:56 am 04:56 Clear 29 -1.7 23 -5 78 78 S 5 7 30.08 1019 10 16 0.00 0.00
5:56 am 05:56 Clear 29 -1.7 23 -5 78 78 S 9 15 30.06 1018 10 16 0.00 0.00
6:56 am 06:56 Clear 35 1.7 25 -3.9 67 67 SSW 16 26 30.04 1017 10 16 0.00 0.00
7:56 am 07:56 Sunny 35 1.7 25 -3.9 67 67 SSW 16 26 30.03 1017 10 16 0.00 0.00
8:56 am 08:56 Sunny 40 4.4 27 -2.8 60 60 S 14 22 30.01 1016 10 16 0.00 0.00
9:56 am 09:56 Sunny 48 8.9 28 -2.2 46 46 S 18 30 29.98 1015 10 16 0.00 0.00
10:56 am 10:56 Sunny 53 11.7 28 -2.2 38 38 SSW 20 31 29.95 1014 10 16 0.00 0.00
11:56 am 11:56 Sunny 55 12.8 28 -2.2 35 35 SSW 23 37 29.90 1013 10 16 0.00 0.00
12:56 pm 12:56 Sunny 57 13.9 29 -1.7 34 34 S 21 33 29.85 1011 10 16 0.00 0.00
1:56 pm 13:56 Sunny 60 15.6 30 -1.1 32 32 SSW 20 31 29.80 1009 10 16 0.00 0.00
2:56 pm 14:56 Sunny 63 17.2 29 -1.7 28 28 SSW 18 30 29.77 1008 10 16 0.00 0.00
3:56 pm 15:56 Sunny 64 17.8 28 -2.2 26 26 SW 14 22 29.75 1008 10 16 0.00 0.00
4:56 pm 16:56 Sunny 62 16.7 28 -2.2 28 28 SW 13 20 29.74 1007 10 16 0.00 0.00
5:56 pm 17:56 Sunny 56 13.3 30 -1.1 37 37 SW 7 11 29.74 1007 10 16 0.00 0.00
6:56 pm 18:56 Clear 53 11.7 30 -1.1 41 41 SW 7 11 29.74 1007 10 16 0.00 0.00
7:56 pm 19:56 Clear 51 10.6 30 -1.1 44 44 WSW 5 7 29.74 1007 10 16 0.00 0.00
8:56 pm 20:56 Clear 49 9.4 29 -1.7 46 46 WSW 6 9 29.73 1007 10 16 0.00 0.00
9:56 pm 21:56 Clear 48 8.9 29 -1.7 48 48 W 7 11 29.72 1006 10 16 0.00 0.00
10:56 pm 22:56 Clear 46 7.8 28 -2.2 50 50 W 5 7 29.70 1006 10 16 0.00 0.00
11:56 pm 23:56 Clear 36 2.2 27 -2.8 70 70 S 7 11 29.70 1006 10 16 0.00 0.00

Powered by AerisWeather